Location: Helsinki
(60.1699°N, 24.9384°E)
Time: 12:25:21
(UTC+02:00)

Transit 2A Rocket - Pass Details

Date: 30 September 2023
Orbit: 593 x 903 km, 66.7° (Epoch: 06 December)

Event Time Altitude Azimuth Distance (km) Brightness Sun altitude
Rises 15:17:03 0° 210° (SSW) 3,279 9.8 22.3°
Reaches altitude 10° 15:19:36 10° 205° (SSW) 2,303 9.4 22.2°
Maximum altitude 15:24:40 52° 131° (SE) 893 5.7 21.8°
Drops below altitude 10° 15:29:19 10° 55° (NE) 2,118 6.8 21.4°
Sets 15:31:35 0° 51° (NE) 2,992 7.5 21.3°
